Flag for Liberia Weather past 2 weeks in Kakata, Liberia

Now
81 °F

Thunderstorms. Passing clouds.


Feels Like: 87 °F
Forecast: N/A
Wind: 12 mph from Southwest

Location: Roberts Field

Current Time: May 30, 2015 at 11:41:46 PM

Latest Report: May 30, 2015 at 8:00 PM


Visibility: N/A

Pressure: 29.86 "Hg

Humidity: 89%

Dew point: 77 °F

Location of KakataLocation

Historic Weather in Kakata — Graph

°F

Kakata temperature yesterday

Maximum temperature yesterday: 88 °F (at 2:00 PM)
Minimum temperature yesterday: 73 °F (at 3:30 AM)
Average temperature yesterday: 80 °F

Past Weeks' High & Low Weather Summary

 TemperatureHumidityPressure
High93 °F (May 18, 1:30 PM)100% (May 24, 6:30 AM)29.98 "Hg (May 24, 6:30 AM)
Low72 °F (May 24, 6:30 AM)56% (May 18, 1:30 PM)29.83 "Hg (May 16, 3:30 PM)
Average81 °F85%29.90 "Hg
* Reported May 15 8:00 PM — May 30 8:00 PM, Kakata, Weather by CustomWeather, © 2015

Note: Actual official high and low records may vary slightly from our data, if they occured in-between our weather recording intervals... More about our weather records

Advertising

Kakata weather history for previous 24 hours

 ConditionsComfort  
Time TempWeatherWind HumidityBarometerVisibility
8:00 PM
Sat, May 30
81 °FThunderstorms. Passing clouds.12 mph89%29.86 "HgN/A
7:00 PM82 °FThunderstorms. Partly sunny.12 mph84%29.86 "HgN/A
6:30 PM84 °FThunderstorms. Partly sunny.9 mph84%29.86 "HgN/A
6:00 PM84 °FThunderstorms. Partly sunny.12 mph84%29.86 "HgN/A
5:30 PM86 °FPartly sunny.12 mph75%29.83 "HgN/A
5:00 PM86 °FPartly sunny.15 mph75%29.83 "HgN/A
4:30 PM88 °FPartly sunny.14 mph70%29.83 "HgN/A
3:30 PM88 °FPartly sunny.13 mph70%29.83 "HgN/A
3:00 PM90 °FPartly sunny.12 mph67%29.86 "HgN/A
2:00 PM88 °FPartly sunny.13 mph70%29.86 "HgN/A
1:30 PM88 °FPartly sunny.12 mph70%29.86 "HgN/A
1:00 PM86 °FPartly sunny.12 mph75%29.89 "HgN/A
12:30 PM86 °FPartly sunny.9 mph75%29.89 "HgN/A
12:00 PM88 °FPartly sunny.7 mph70%29.89 "HgN/A
11:00 AM88 °FPartly sunny.6 mph70%29.92 "HgN/A
10:00 AM84 °FPartly sunny.9 mph79%29.92 "HgN/A
9:30 AM82 °FPartly sunny.No wind84%29.92 "HgN/A
9:00 AM81 °FPartly sunny.No wind89%29.92 "HgN/A
8:30 AM79 °FBroken clouds.No wind94%29.89 "Hg4 mi
8:00 AM77 °FFog.No wind94%29.89 "Hg1 mi
7:30 AM77 °FFog.No wind94%29.89 "Hg1 mi
7:00 AM77 °FFog.5 mph94%29.89 "Hg1 mi
6:30 AM77 °FFog.3 mph94%29.89 "Hg2 mi
6:00 AM77 °FPassing clouds.3 mph94%29.86 "Hg4 mi
5:30 AM77 °FPassing clouds.5 mph94%29.86 "Hg4 mi
5:00 AM77 °FPassing clouds.6 mph94%29.86 "HgN/A
1:30 AM79 °FPassing clouds.No wind94%29.89 "HgN/A
1:00 AM79 °FPassing clouds.No wind94%29.92 "HgN/A
12:00 AM79 °FPartly cloudy.No wind94%29.92 "HgN/A
11:30 PM
Fri, May 29
79 °FPartly cloudy.No wind94%29.92 "HgN/A
11:00 PM79 °FPartly cloudy.No wind94%29.89 "HgN/A
Weather by CustomWeather, © 2015

See weather overviewHow to use our weather pages